This is the latest recevied weather packets stored in our database for station/object WZ8H. If no packets are shown the sender has not sent any weather packets the latest 1 day(s).
| Time | Temp. | Humidity | Pressure | Rain* | Wind** | Luminosity | Snow |
|---|---|---|---|---|---|---|---|
| 1778086897 | 12.78° C | 61% | 1011.9 hPa | 0 mm | - | 798 W/m² | - |
| 1778086267 | 12.78° C | 67% | 1011.9 hPa | 0 mm | - | 853 W/m² | - |
| 1778085033 | 12.22° C | 67% | 1011.9 hPa | 0 mm | - | 1072 W/m² | - |
| 1778084126 | 12.22° C | 70% | 1011.8 hPa | 0 mm | - | 1136 W/m² | - |
| 1778083821 | 12.78° C | 71% | 1011.7 hPa | 0 mm | - | 468 W/m² | - |
| 1778082885 | 12.78° C | 72% | 1011.5 hPa | 0 mm | - | 761 W/m² | - |
| 1778081627 | 11.67° C | 75% | 1011.4 hPa | 0 mm | - | 865 W/m² | - |
| 1778079735 | 11.67° C | 77% | 1011 hPa | 0 mm | - | 696 W/m² | - |
| 1778079443 | 11.67° C | 77% | 1010.8 hPa | 0 mm | - | 722 W/m² | - |
| 1778078824 | 11.67° C | 77% | 1010.7 hPa | 0 mm | - | 643 W/m² | - |
| 1778077285 | 11.11° C | 75% | 1010.5 hPa | 0 mm | - | 705 W/m² | - |
| 1778076960 | 11.11° C | 74% | 1010.7 hPa | 0 mm | - | 271 W/m² | - |
| 1778076040 | 11.11° C | 75% | 1010.5 hPa | 0 mm | - | 346 W/m² | - |
| 1778075440 | 10.56° C | 76% | 1010.4 hPa | 0 mm | - | 394 W/m² | - |
| 1778075120 | 10.56° C | 78% | 1010.2 hPa | 0 mm | - | 606 W/m² | - |
| 1778074501 | 10.56° C | 79% | 1010 hPa | 0 mm | - | 332 W/m² | - |
| 1778074205 | 10° C | 80% | 1010 hPa | 0 mm | - | 253 W/m² | - |
| 1778073557 | 9.44° C | 86% | 1010 hPa | 0 mm | - | 225 W/m² | - |
| 1778072039 | 8.89° C | 91% | 1009.5 hPa | 0 mm | - | 153 W/m² | - |
| 1778069541 | 7.78° C | 92% | 1008.9 hPa | 0 mm | - | 105 W/m² | - |
| 1778068284 | 7.22° C | 92% | 1009 hPa | 0.25 mm | - | 33 W/m² | - |
| 1778067957 | 7.22° C | 92% | 1009 hPa | 0.25 mm | - | 53 W/m² | - |
| 1778067657 | 7.22° C | 92% | 1009.1 hPa | 0.25 mm | - | 32 W/m² | - |
| 1778067343 | 7.22° C | 92% | 1009 hPa | 0.25 mm | - | 39 W/m² | - |
| 1778065474 | 7.22° C | 93% | 1008.2 hPa | 0.25 mm | - | 14 W/m² | - |
* Rain latest hour (hover to see other rain measurements)
** Current wind speed in m/s (hover to see current wind gust speed)